Location: Borz?cin
(51.1714°N, 19.6030°E)
Time: 17:46:40
(UTC+00:00)

Cosmos 1934 Rocket - Pass Details

Date: 19 May 2025
Orbit: 938 x 997 km, 83.0° (Epoch: 20 June)

Event Time Altitude Azimuth Distance (km) Brightness Sun altitude
Rises 21:23:11 0° 350° (N) 3,667 8.7 -17.0°
Reaches altitude 10° 21:25:41 10° 351° (N) 2,725 7.6 -17.1°
Maximum altitude 21:31:58 85° 80° (E) 992 4.0 -17.4°
Enters shadow 21:35:33 28° 168° (SSE) 1,767 4.7 -17.5°
